EFW568Y EGKK-LPPR

Flight info

Callsign EFW568Y
Flight time 1h 49m
Altitude 37000
Route IMVUR N63 SAM M195 LORKU DCT POZOF DCT LOTEE DCT ELTEP T328 ASPOR
Aircraft A321/M-SDE3FGHIRWY/LB1

Departure

Time 2026-05-05 16:22
Airport London Gatwick Airport (EGKK)

Arrival

Time 2026-05-05 18:12
Airport Francisco de Sá Carneiro Airport (LPPR)
Time Latitude Longitude Altitude Speed Heading
2026-05-05 15:36 51.15758 -0.16746 215 ft 0 kts 348°
2026-05-05 16:05 51.15755 -0.16745 204 ft 3 kts 348°
2026-05-05 16:06 51.15729 -0.16736 214 ft 4 kts 348°
2026-05-05 16:06 51.15708 -0.16730 210 ft 4 kts 341°
2026-05-05 16:06 51.15692 -0.16708 215 ft 4 kts 278°
2026-05-05 16:06 51.15694 -0.16669 213 ft 4 kts 258°
2026-05-05 16:07 51.15696 -0.16654 214 ft 0 kts 258°
2026-05-05 16:09 51.15693 -0.16679 215 ft 5 kts 258°
2026-05-05 16:09 51.15682 -0.16757 206 ft 9 kts 257°
2026-05-05 16:10 51.15667 -0.16860 206 ft 10 kts 257°
2026-05-05 16:10 51.15652 -0.16973 206 ft 11 kts 257°
2026-05-05 16:10 51.15635 -0.17095 204 ft 12 kts 258°
2026-05-05 16:10 51.15616 -0.17227 215 ft 13 kts 255°
2026-05-05 16:11 51.15594 -0.17366 209 ft 13 kts 256°
2026-05-05 16:11 51.15510 -0.17715 206 ft 12 kts 257°
2026-05-05 16:12 51.15491 -0.17853 204 ft 13 kts 257°
2026-05-05 16:12 51.15449 -0.18157 206 ft 15 kts 257°
2026-05-05 16:13 51.15276 -0.18237 204 ft 11 kts 167°
2026-05-05 16:13 51.15200 -0.18235 215 ft 11 kts 219°
2026-05-05 16:13 51.15181 -0.18360 206 ft 12 kts 259°
2026-05-05 16:14 51.15142 -0.18643 209 ft 14 kts 257°
2026-05-05 16:14 51.15095 -0.18984 212 ft 17 kts 257°
2026-05-05 16:15 51.15023 -0.19265 212 ft 10 kts 187°
2026-05-05 16:15 51.14945 -0.19407 206 ft 11 kts 258°
2026-05-05 16:16 51.14905 -0.19700 209 ft 15 kts 258°
2026-05-05 16:16 51.14854 -0.20066 209 ft 19 kts 257°
2026-05-05 16:17 51.14794 -0.20503 210 ft 20 kts 257°
2026-05-05 16:17 51.14763 -0.20729 207 ft 21 kts 257°
2026-05-05 16:18 51.14699 -0.21189 204 ft 20 kts 257°
2026-05-05 16:18 51.14668 -0.21326 213 ft 12 kts 219°
2026-05-05 16:18 51.14629 -0.21330 204 ft 0 kts 168°
2026-05-05 16:20 51.14627 -0.21329 204 ft 2 kts 168°
2026-05-05 16:21 51.14526 -0.21226 207 ft 13 kts 114°
2026-05-05 16:22 51.14727 -0.19666 208 ft 128 kts 77°
2026-05-05 16:22 51.15208 -0.16113 946 ft 173 kts 78°
2026-05-05 16:23 51.15719 -0.12129 1790 ft 203 kts 76°
2026-05-05 16:23 51.16036 -0.09829 2111 ft 219 kts 76°
2026-05-05 16:23 51.17319 -0.05579 3518 ft 220 kts 31°
2026-05-05 16:24 51.18787 -0.04994 4162 ft 224 kts 354°
2026-05-05 16:24 51.20332 -0.05473 4837 ft 227 kts 348°
2026-05-05 16:24 51.22663 -0.08676 6030 ft 247 kts 286°
2026-05-05 16:25 51.22695 -0.11530 6332 ft 269 kts 263°
2026-05-05 16:25 51.21999 -0.17546 7563 ft 279 kts 259°
2026-05-05 16:25 51.21608 -0.20551 8238 ft 282 kts 259°
2026-05-05 16:26 51.20830 -0.26749 9569 ft 288 kts 260°
2026-05-05 16:26 51.20073 -0.33090 10775 ft 294 kts 260°
2026-05-05 16:27 51.19689 -0.36314 11347 ft 298 kts 259°
2026-05-05 16:27 51.19279 -0.39554 11929 ft 302 kts 259°
2026-05-05 16:27 51.18847 -0.42850 12508 ft 306 kts 259°
2026-05-05 16:27 51.18404 -0.46184 13073 ft 310 kts 259°
2026-05-05 16:28 51.17954 -0.49569 13613 ft 315 kts 259°
2026-05-05 16:28 51.17470 -0.52990 14162 ft 317 kts 253°
2026-05-05 16:28 51.16672 -0.56340 14390 ft 332 kts 248°
2026-05-05 16:28 51.15751 -0.59814 14527 ft 349 kts 247°
2026-05-05 16:29 51.14772 -0.63453 14644 ft 365 kts 247°
2026-05-05 16:29 51.13751 -0.67245 14791 ft 379 kts 247°
2026-05-05 16:29 51.12705 -0.71138 15192 ft 384 kts 247°
2026-05-05 16:29 51.11661 -0.75035 15702 ft 387 kts 247°
2026-05-05 16:30 51.10606 -0.78970 16183 ft 390 kts 247°
2026-05-05 16:30 51.09537 -0.82950 16686 ft 392 kts 247°
2026-05-05 16:30 51.08463 -0.86945 17203 ft 394 kts 247°
2026-05-05 16:30 51.07383 -0.90951 17700 ft 396 kts 247°
2026-05-05 16:31 51.06294 -0.94987 18159 ft 398 kts 247°
2026-05-05 16:31 51.05197 -0.99038 18609 ft 399 kts 247°
2026-05-05 16:31 51.04099 -1.03087 19054 ft 400 kts 247°
2026-05-05 16:31 51.02995 -1.07141 19491 ft 401 kts 247°
2026-05-05 16:32 51.01886 -1.11214 19915 ft 402 kts 247°
2026-05-05 16:32 51.00793 -1.15230 20329 ft 404 kts 247°
2026-05-05 16:32 50.99678 -1.19330 20747 ft 405 kts 247°
2026-05-05 16:32 50.98560 -1.23437 21181 ft 406 kts 247°
2026-05-05 16:33 50.97436 -1.27559 21591 ft 407 kts 246°
2026-05-05 16:33 50.96084 -1.31519 21982 ft 410 kts 237°
2026-05-05 16:33 50.94299 -1.35049 22402 ft 412 kts 226°
2026-05-05 16:33 50.92133 -1.38030 22799 ft 415 kts 216°
2026-05-05 16:34 50.89719 -1.40566 23165 ft 417 kts 214°
2026-05-05 16:34 50.87289 -1.43082 23583 ft 417 kts 214°
2026-05-05 16:34 50.84857 -1.45600 23911 ft 419 kts 214°
2026-05-05 16:34 50.82410 -1.48140 24193 ft 422 kts 214°
2026-05-05 16:35 50.79988 -1.50655 24543 ft 422 kts 214°
2026-05-05 16:35 50.77503 -1.53233 24907 ft 423 kts 214°
2026-05-05 16:35 50.75071 -1.55752 25207 ft 424 kts 214°
2026-05-05 16:35 50.72599 -1.58306 25567 ft 425 kts 213°
2026-05-05 16:36 50.70121 -1.60856 25902 ft 426 kts 213°
2026-05-05 16:36 50.67631 -1.63416 26185 ft 428 kts 213°
2026-05-05 16:36 50.65149 -1.65972 26506 ft 429 kts 213°
2026-05-05 16:36 50.62649 -1.68549 26810 ft 431 kts 213°
2026-05-05 16:37 50.60132 -1.71140 26974 ft 435 kts 212°
2026-05-05 16:37 50.57588 -1.73750 27226 ft 437 kts 212°
2026-05-05 16:37 50.55863 -1.75515 27423 ft 438 kts 212°
2026-05-05 16:37 50.53302 -1.78134 27729 ft 440 kts 212°
2026-05-05 16:38 50.50736 -1.80757 28025 ft 441 kts 212°
2026-05-05 16:38 50.48161 -1.83385 28308 ft 442 kts 212°
2026-05-05 16:38 50.45579 -1.86017 28585 ft 443 kts 212°
2026-05-05 16:38 50.42992 -1.88647 28851 ft 444 kts 212°
2026-05-05 16:39 50.40401 -1.91278 29085 ft 445 kts 212°
2026-05-05 16:39 50.37796 -1.93917 29309 ft 446 kts 212°
2026-05-05 16:39 50.35185 -1.96558 29578 ft 446 kts 212°
2026-05-05 16:39 50.32584 -1.99188 29906 ft 445 kts 212°
2026-05-05 16:40 50.30001 -2.01796 30200 ft 444 kts 212°
2026-05-05 16:40 50.27441 -2.04376 30459 ft 443 kts 212°
2026-05-05 16:40 50.24853 -2.06986 30711 ft 443 kts 212°
2026-05-05 16:40 50.22261 -2.09584 30936 ft 443 kts 212°
2026-05-05 16:41 50.19656 -2.12149 31169 ft 443 kts 211°
2026-05-05 16:41 50.17042 -2.14689 31405 ft 443 kts 211°
2026-05-05 16:41 50.14413 -2.17229 31575 ft 444 kts 211°
2026-05-05 16:41 50.11782 -2.19764 31794 ft 445 kts 211°
2026-05-05 16:42 50.09147 -2.22303 32001 ft 445 kts 211°
2026-05-05 16:42 50.06755 -2.24611 32232 ft 444 kts 211°
2026-05-05 16:42 50.04740 -2.26590 32401 ft 443 kts 212°
2026-05-05 16:42 50.02140 -2.29183 32616 ft 444 kts 212°
2026-05-05 16:43 49.99526 -2.31716 32847 ft 443 kts 211°
2026-05-05 16:43 49.96899 -2.34218 33078 ft 443 kts 211°
2026-05-05 16:43 49.94256 -2.36690 33274 ft 444 kts 208°
2026-05-05 16:43 49.91467 -2.38757 33437 ft 445 kts 204°
2026-05-05 16:44 49.88625 -2.40722 33570 ft 448 kts 204°
2026-05-05 16:44 49.85780 -2.42703 33738 ft 449 kts 204°
2026-05-05 16:44 49.82959 -2.44675 33908 ft 450 kts 204°
2026-05-05 16:44 49.80110 -2.46673 34081 ft 450 kts 204°
2026-05-05 16:45 49.77253 -2.48676 34253 ft 450 kts 204°
2026-05-05 16:45 49.74415 -2.50660 34421 ft 450 kts 204°
2026-05-05 16:45 49.71554 -2.52650 34593 ft 450 kts 204°
2026-05-05 16:45 49.68700 -2.54631 34791 ft 449 kts 204°
2026-05-05 16:46 49.65853 -2.56605 34931 ft 449 kts 204°
2026-05-05 16:46 49.63004 -2.58577 34970 ft 448 kts 204°
2026-05-05 16:46 49.57322 -2.62496 34971 ft 447 kts 204°
2026-05-05 16:47 49.51641 -2.66404 34975 ft 447 kts 204°
2026-05-05 16:47 49.45965 -2.70308 34974 ft 447 kts 204°
2026-05-05 16:48 49.40290 -2.74206 34973 ft 447 kts 204°
2026-05-05 16:48 49.34606 -2.78088 34980 ft 447 kts 204°
2026-05-05 16:49 49.28914 -2.81963 34970 ft 448 kts 204°
2026-05-05 16:49 49.23224 -2.85832 34985 ft 448 kts 203°
2026-05-05 16:50 49.17535 -2.89700 34986 ft 447 kts 203°
2026-05-05 16:50 49.11875 -2.93532 34985 ft 447 kts 203°
2026-05-05 16:51 49.06186 -2.97368 34983 ft 447 kts 203°
2026-05-05 16:51 49.00495 -3.01206 35002 ft 447 kts 202°
2026-05-05 16:52 48.94801 -3.05028 34995 ft 447 kts 202°
2026-05-05 16:52 48.89098 -3.08841 34986 ft 448 kts 203°
2026-05-05 16:53 48.83383 -3.12648 34980 ft 449 kts 203°
2026-05-05 16:53 48.77650 -3.16475 34982 ft 450 kts 203°
2026-05-05 16:54 48.71907 -3.20305 34985 ft 451 kts 203°
2026-05-05 16:54 48.66193 -3.24092 34990 ft 452 kts 203°
2026-05-05 16:55 48.60440 -3.27904 34996 ft 452 kts 203°
2026-05-05 16:55 48.54677 -3.31699 34996 ft 452 kts 202°
2026-05-05 16:56 48.48916 -3.35490 35001 ft 452 kts 202°
2026-05-05 16:56 48.43156 -3.39284 35001 ft 452 kts 202°
2026-05-05 16:57 48.37390 -3.43056 35007 ft 452 kts 202°
2026-05-05 16:57 48.31619 -3.46822 35000 ft 452 kts 202°
2026-05-05 16:58 48.25841 -3.50600 34993 ft 453 kts 202°
2026-05-05 16:58 48.20057 -3.54366 34990 ft 454 kts 202°
2026-05-05 16:59 48.14256 -3.58126 34996 ft 454 kts 202°
2026-05-05 16:59 48.08443 -3.61876 35003 ft 455 kts 202°
2026-05-05 17:00 48.02634 -3.65623 35002 ft 455 kts 202°
2026-05-05 17:00 47.96828 -3.69367 35000 ft 455 kts 202°
2026-05-05 17:01 47.91023 -3.73092 35003 ft 454 kts 202°
2026-05-05 17:01 47.85209 -3.76818 34996 ft 454 kts 202°
2026-05-05 17:02 47.79402 -3.80532 34986 ft 454 kts 202°
2026-05-05 17:02 47.73582 -3.84241 34965 ft 456 kts 202°
2026-05-05 17:03 47.67743 -3.87957 34963 ft 457 kts 202°
2026-05-05 17:03 47.61888 -3.91669 34976 ft 458 kts 202°
2026-05-05 17:04 47.56062 -3.95351 34983 ft 459 kts 202°
2026-05-05 17:04 47.50193 -3.99059 34991 ft 459 kts 201°
2026-05-05 17:05 47.44331 -4.02748 34967 ft 457 kts 202°
2026-05-05 17:05 47.38476 -4.06432 34970 ft 457 kts 202°
2026-05-05 17:06 47.32611 -4.10106 34981 ft 458 kts 202°
2026-05-05 17:06 47.26753 -4.13773 34972 ft 458 kts 201°
2026-05-05 17:07 47.20875 -4.17439 34957 ft 459 kts 202°
2026-05-05 17:07 47.14977 -4.21109 34955 ft 461 kts 202°
2026-05-05 17:08 47.09056 -4.24784 34966 ft 462 kts 202°
2026-05-05 17:08 47.03146 -4.28505 34972 ft 463 kts 203°
2026-05-05 17:09 46.97314 -4.32503 34982 ft 463 kts 205°
2026-05-05 17:09 46.91502 -4.36589 34982 ft 463 kts 205°
2026-05-05 17:10 46.85678 -4.40606 34982 ft 463 kts 204°
2026-05-05 17:10 46.79846 -4.44554 34987 ft 462 kts 204°
2026-05-05 17:11 46.74004 -4.48497 34984 ft 463 kts 204°
2026-05-05 17:11 46.68162 -4.52443 34982 ft 463 kts 204°
2026-05-05 17:12 46.62324 -4.56391 34991 ft 463 kts 204°
2026-05-05 17:12 46.56480 -4.60334 34991 ft 463 kts 204°
2026-05-05 17:13 46.50636 -4.64259 34988 ft 463 kts 204°
2026-05-05 17:13 46.44793 -4.68163 34995 ft 463 kts 204°
2026-05-05 17:14 46.38946 -4.72070 34997 ft 463 kts 204°
2026-05-05 17:14 46.33091 -4.75964 34992 ft 463 kts 204°
2026-05-05 17:15 46.27230 -4.79863 34997 ft 463 kts 204°
2026-05-05 17:15 46.21361 -4.83748 35004 ft 465 kts 205°
2026-05-05 17:16 46.15484 -4.87637 34999 ft 465 kts 205°
2026-05-05 17:16 46.09597 -4.91536 34994 ft 465 kts 205°
2026-05-05 17:17 46.03703 -4.95415 35003 ft 466 kts 205°
2026-05-05 17:17 45.97803 -4.99279 35008 ft 466 kts 205°
2026-05-05 17:18 45.91909 -5.03158 35013 ft 466 kts 205°
2026-05-05 17:18 45.86013 -5.07028 35011 ft 466 kts 205°
2026-05-05 17:19 45.80110 -5.10864 35020 ft 466 kts 205°
2026-05-05 17:19 45.74208 -5.14702 35004 ft 466 kts 205°
2026-05-05 17:20 45.68338 -5.18516 35006 ft 467 kts 205°
2026-05-05 17:20 45.62419 -5.22343 35008 ft 467 kts 205°
2026-05-05 17:21 45.56511 -5.26174 35012 ft 467 kts 205°
2026-05-05 17:22 45.47626 -5.31911 35022 ft 467 kts 205°
2026-05-05 17:22 45.41695 -5.35707 35017 ft 467 kts 205°
2026-05-05 17:23 45.35766 -5.39500 35025 ft 467 kts 205°
2026-05-05 17:23 45.30800 -5.42673 35021 ft 467 kts 205°
2026-05-05 17:24 45.24873 -5.46457 35018 ft 467 kts 205°
2026-05-05 17:24 45.18948 -5.50233 35033 ft 467 kts 205°
2026-05-05 17:25 45.13028 -5.54000 35034 ft 466 kts 205°
2026-05-05 17:25 45.07112 -5.57772 35040 ft 466 kts 205°
2026-05-05 17:26 45.01234 -5.61500 35042 ft 466 kts 205°
2026-05-05 17:26 44.95319 -5.65217 35042 ft 465 kts 205°
2026-05-05 17:27 44.89408 -5.68924 35046 ft 465 kts 205°
2026-05-05 17:27 44.83503 -5.72631 35035 ft 464 kts 206°
2026-05-05 17:28 44.77603 -5.76341 35039 ft 464 kts 206°
2026-05-05 17:28 44.71707 -5.80035 35041 ft 464 kts 206°
2026-05-05 17:29 44.65857 -5.83849 35044 ft 462 kts 212°
2026-05-05 17:29 44.60583 -5.88949 35046 ft 460 kts 217°
2026-05-05 17:30 44.55350 -5.94143 35049 ft 461 kts 217°
2026-05-05 17:30 44.50111 -5.99311 35049 ft 461 kts 217°
2026-05-05 17:31 44.44870 -6.04473 35048 ft 461 kts 217°
2026-05-05 17:31 44.39633 -6.09626 35040 ft 460 kts 217°
2026-05-05 17:32 44.34395 -6.14780 35042 ft 461 kts 218°
2026-05-05 17:32 44.29148 -6.19924 35049 ft 461 kts 217°
2026-05-05 17:33 44.23899 -6.25056 35047 ft 461 kts 218°
2026-05-05 17:33 44.18640 -6.30172 35057 ft 461 kts 218°
2026-05-05 17:34 44.13387 -6.35287 35054 ft 461 kts 218°
2026-05-05 17:34 44.08141 -6.40395 35064 ft 460 kts 218°
2026-05-05 17:35 44.02881 -6.45488 35063 ft 460 kts 218°
2026-05-05 17:35 43.97627 -6.50563 35057 ft 460 kts 218°
2026-05-05 17:36 43.92376 -6.55634 35069 ft 460 kts 218°
2026-05-05 17:36 43.87124 -6.60698 35074 ft 460 kts 218°
2026-05-05 17:37 43.81868 -6.65744 35066 ft 460 kts 218°
2026-05-05 17:37 43.76612 -6.70776 35083 ft 459 kts 218°
2026-05-05 17:38 43.71364 -6.75797 35084 ft 459 kts 218°
2026-05-05 17:38 43.66114 -6.80813 35084 ft 458 kts 218°
2026-05-05 17:39 43.60871 -6.85816 35064 ft 458 kts 219°
2026-05-05 17:39 43.55661 -6.90765 35081 ft 458 kts 219°
2026-05-05 17:40 43.50412 -6.95740 35090 ft 458 kts 219°
2026-05-05 17:40 43.45168 -7.00709 35091 ft 458 kts 219°
2026-05-05 17:41 43.39917 -7.05669 35073 ft 457 kts 219°
2026-05-05 17:41 43.34672 -7.10606 35091 ft 457 kts 219°
2026-05-05 17:42 43.29432 -7.15535 35091 ft 456 kts 219°
2026-05-05 17:42 43.24199 -7.20451 35095 ft 456 kts 219°
2026-05-05 17:43 43.18965 -7.25357 35062 ft 456 kts 220°
2026-05-05 17:43 43.13733 -7.30240 35099 ft 455 kts 220°
2026-05-05 17:44 43.08499 -7.35114 35102 ft 454 kts 220°
2026-05-05 17:44 43.03278 -7.39967 35097 ft 454 kts 220°
2026-05-05 17:45 42.98090 -7.44790 35075 ft 453 kts 220°
2026-05-05 17:45 42.92882 -7.49618 35093 ft 452 kts 220°
2026-05-05 17:46 42.87678 -7.54425 35098 ft 451 kts 220°
2026-05-05 17:46 42.82476 -7.59229 35099 ft 451 kts 220°
2026-05-05 17:47 42.77290 -7.64012 35086 ft 450 kts 219°
2026-05-05 17:47 42.72106 -7.68767 35092 ft 449 kts 219°
2026-05-05 17:48 42.66925 -7.73505 35100 ft 448 kts 219°
2026-05-05 17:48 42.61633 -7.77980 35107 ft 453 kts 209°
2026-05-05 17:49 42.55597 -7.80630 35008 ft 458 kts 200°
2026-05-05 17:49 42.52530 -7.81771 34767 ft 456 kts 200°
2026-05-05 17:49 42.49467 -7.82916 34527 ft 456 kts 200°
2026-05-05 17:49 42.46411 -7.84066 34282 ft 456 kts 200°
2026-05-05 17:50 42.43345 -7.85220 33438 ft 460 kts 200°
2026-05-05 17:50 42.40248 -7.86382 32627 ft 461 kts 201°
2026-05-05 17:50 42.37149 -7.87541 31752 ft 464 kts 201°
2026-05-05 17:50 42.34041 -7.88697 31075 ft 462 kts 201°
2026-05-05 17:51 42.30961 -7.89836 30570 ft 456 kts 201°
2026-05-05 17:51 42.27915 -7.90964 29987 ft 453 kts 201°
2026-05-05 17:51 42.24891 -7.92085 29389 ft 448 kts 201°
2026-05-05 17:51 42.21906 -7.93197 28858 ft 442 kts 201°
2026-05-05 17:52 42.18964 -7.94293 28310 ft 437 kts 202°
2026-05-05 17:52 42.16049 -7.95377 27767 ft 432 kts 202°
2026-05-05 17:52 42.13166 -7.96445 27236 ft 427 kts 202°
2026-05-05 17:52 42.10320 -7.97496 26708 ft 422 kts 202°
2026-05-05 17:53 42.07503 -7.98535 26192 ft 418 kts 202°
2026-05-05 17:53 42.04710 -7.99568 25678 ft 414 kts 202°
2026-05-05 17:53 42.01941 -8.00592 25180 ft 411 kts 202°
2026-05-05 17:53 41.99197 -8.01603 24677 ft 408 kts 202°
2026-05-05 17:54 41.96473 -8.02609 24197 ft 405 kts 202°
2026-05-05 17:54 41.93768 -8.03610 23716 ft 402 kts 202°
2026-05-05 17:54 41.91082 -8.04603 23182 ft 398 kts 202°
2026-05-05 17:54 41.88432 -8.05577 22759 ft 392 kts 201°
2026-05-05 17:55 41.85811 -8.06535 22317 ft 387 kts 201°
2026-05-05 17:55 41.83235 -8.07476 21884 ft 382 kts 202°
2026-05-05 17:55 41.80779 -8.08711 21457 ft 372 kts 212°
2026-05-05 17:55 41.78529 -8.10356 21059 ft 367 kts 216°
2026-05-05 17:56 41.76306 -8.12036 20657 ft 366 kts 215°
2026-05-05 17:56 41.74088 -8.13695 20236 ft 364 kts 215°
2026-05-05 17:56 41.71883 -8.15339 19832 ft 362 kts 214°
2026-05-05 17:56 41.69588 -8.16715 19639 ft 364 kts 204°
2026-05-05 17:57 41.67187 -8.17825 19272 ft 365 kts 204°
2026-05-05 17:57 41.64790 -8.18927 18826 ft 364 kts 204°
2026-05-05 17:57 41.62436 -8.20003 18380 ft 362 kts 204°
2026-05-05 17:57 41.60061 -8.21091 17874 ft 359 kts 204°
2026-05-05 17:58 41.57707 -8.22171 17420 ft 356 kts 204°
2026-05-05 17:58 41.55370 -8.23240 16956 ft 353 kts 204°
2026-05-05 17:58 41.53056 -8.24299 16490 ft 350 kts 203°
2026-05-05 17:58 41.50759 -8.25351 16036 ft 348 kts 203°
2026-05-05 17:59 41.48584 -8.26347 15602 ft 345 kts 203°
2026-05-05 17:59 41.46322 -8.27382 15149 ft 342 kts 203°
2026-05-05 17:59 41.44082 -8.28403 14701 ft 339 kts 202°
2026-05-05 17:59 41.41854 -8.29418 14245 ft 337 kts 202°
2026-05-05 18:00 41.39642 -8.30426 13797 ft 335 kts 202°
2026-05-05 18:00 41.37451 -8.31424 13317 ft 332 kts 202°
2026-05-05 18:00 41.35268 -8.32418 13060 ft 338 kts 202°
2026-05-05 18:00 41.33001 -8.33457 13064 ft 350 kts 202°
2026-05-05 18:01 41.30688 -8.34517 13056 ft 353 kts 202°
2026-05-05 18:01 41.28360 -8.35575 13064 ft 354 kts 202°
2026-05-05 18:01 41.26028 -8.36630 13065 ft 354 kts 202°
2026-05-05 18:01 41.23692 -8.37683 13020 ft 354 kts 202°
2026-05-05 18:02 41.21407 -8.38708 12850 ft 334 kts 202°
2026-05-05 18:02 41.19282 -8.39655 12432 ft 314 kts 202°
2026-05-05 18:02 41.17240 -8.40572 11730 ft 307 kts 202°
2026-05-05 18:02 41.15237 -8.41479 10977 ft 302 kts 202°
2026-05-05 18:03 41.13262 -8.42380 10238 ft 298 kts 202°
2026-05-05 18:03 41.11311 -8.43270 9462 ft 295 kts 202°
2026-05-05 18:03 41.09375 -8.44149 8691 ft 293 kts 201°
2026-05-05 18:03 41.07458 -8.45015 7956 ft 290 kts 201°
2026-05-05 18:04 41.05540 -8.45876 7555 ft 290 kts 201°
2026-05-05 18:04 41.03638 -8.46731 7192 ft 288 kts 202°
2026-05-05 18:04 41.01903 -8.47972 6820 ft 281 kts 222°
2026-05-05 18:04 41.00602 -8.49829 6541 ft 270 kts 241°
2026-05-05 18:05 40.99823 -8.51994 6385 ft 249 kts 259°
2026-05-05 18:05 40.99467 -8.54152 6148 ft 235 kts 264°
2026-05-05 18:05 40.99159 -8.56234 5771 ft 232 kts 263°
2026-05-05 18:05 40.99064 -8.58325 5383 ft 224 kts 284°
2026-05-05 18:06 40.99611 -8.60187 4943 ft 215 kts 308°
2026-05-05 18:06 40.99924 -8.60710 4777 ft 214 kts 315°
2026-05-05 18:06 41.02073 -8.62161 4145 ft 214 kts 348°
2026-05-05 18:06 41.03527 -8.62542 3786 ft 212 kts 348°
2026-05-05 18:07 41.04963 -8.62924 3424 ft 207 kts 347°
2026-05-05 18:07 41.05878 -8.63169 3211 ft 198 kts 347°
2026-05-05 18:07 41.07172 -8.63515 3139 ft 182 kts 347°
2026-05-05 18:07 41.08373 -8.63830 3063 ft 170 kts 347°
2026-05-05 18:08 41.09489 -8.64120 2982 ft 158 kts 346°
2026-05-05 18:08 41.10557 -8.64398 2788 ft 155 kts 346°
2026-05-05 18:08 41.11592 -8.64669 2569 ft 151 kts 347°
2026-05-05 18:08 41.12635 -8.64941 2380 ft 154 kts 347°
2026-05-05 18:09 41.13658 -8.65206 2169 ft 145 kts 347°
2026-05-05 18:09 41.14623 -8.65454 1979 ft 139 kts 346°
2026-05-05 18:09 41.15568 -8.65700 1770 ft 138 kts 346°
2026-05-05 18:09 41.16509 -8.65957 1574 ft 137 kts 346°
2026-05-05 18:10 41.17447 -8.66216 1414 ft 138 kts 347°
2026-05-05 18:10 41.18388 -8.66472 1207 ft 137 kts 347°
2026-05-05 18:10 41.19320 -8.66699 1028 ft 137 kts 348°
2026-05-05 18:10 41.20251 -8.66926 896 ft 135 kts 346°
2026-05-05 18:11 41.21175 -8.67179 700 ft 136 kts 347°
2026-05-05 18:11 41.22103 -8.67416 503 ft 136 kts 347°
2026-05-05 18:11 41.23037 -8.67660 328 ft 136 kts 347°
2026-05-05 18:11 41.23945 -8.67898 221 ft 123 kts 348°
2026-05-05 18:12 41.24614 -8.68075 204 ft 73 kts 349°
2026-05-05 18:12 41.24961 -8.68166 200 ft 38 kts 349°
2026-05-05 18:12 41.25191 -8.68142 183 ft 30 kts 16°
2026-05-05 18:12 41.25290 -8.68071 180 ft 12 kts 70°
2026-05-05 18:13 41.25248 -8.68011 183 ft 9 kts 167°
2026-05-05 18:13 41.25195 -8.67995 197 ft 7 kts 169°
2026-05-05 18:13 41.25148 -8.67983 188 ft 9 kts 170°
2026-05-05 18:13 41.25079 -8.67966 191 ft 10 kts 169°
2026-05-05 18:14 41.25014 -8.67949 206 ft 9 kts 169°
2026-05-05 18:14 41.24949 -8.67933 195 ft 9 kts 169°
2026-05-05 18:14 41.24893 -8.67915 198 ft 8 kts 161°
2026-05-05 18:14 41.24831 -8.67875 215 ft 12 kts 150°
2026-05-05 18:15 41.24752 -8.67826 209 ft 14 kts 162°
2026-05-05 18:15 41.24649 -8.67798 212 ft 14 kts 169°
2026-05-05 18:15 41.24561 -8.67775 220 ft 13 kts 169°
2026-05-05 18:15 41.24456 -8.67747 222 ft 15 kts 169°
2026-05-05 18:16 41.24363 -8.67723 227 ft 12 kts 169°
2026-05-05 18:16 41.24295 -8.67688 231 ft 9 kts 140°
2026-05-05 18:16 41.24262 -8.67633 235 ft 7 kts 126°
2026-05-05 18:16 41.24202 -8.67577 238 ft 13 kts 161°
2026-05-05 18:17 41.24113 -8.67551 238 ft 14 kts 169°
2026-05-05 18:17 41.24015 -8.67525 238 ft 15 kts 169°
2026-05-05 18:17 41.23909 -8.67498 238 ft 16 kts 168°
2026-05-05 18:17 41.23832 -8.67476 239 ft 6 kts 156°
2026-05-05 18:18 41.23824 -8.67444 241 ft 2 kts 92°
2026-05-05 18:18 41.23827 -8.67414 243 ft 3 kts 82°
2026-05-05 18:18 41.23829 -8.67399 244 ft 3 kts 79°
2026-05-05 18:18 41.23831 -8.67386 245 ft 0 kts 79°
2026-05-05 18:19 41.23831 -8.67385 245 ft 0 kts 79°